TimeEST,TemperatureF,Dew PointF,Humidity,Sea Level PressureIn,VisibilityMPH,Wind Direction,Wind SpeedMPH,Gust SpeedMPH,PrecipitationIn,Events,Conditions,WindDirDegrees,DateUTC
12:52 AM,36.0,30.9,82,30.43,10.0,WNW,3.5,-,N/A,,Clear,300,2012-11-17 05:52:00
1:52 AM,36.0,33.1,89,30.44,9.0,Calm,Calm,-,N/A,,Clear,0,2012-11-17 06:52:00
2:52 AM,43.0,30.9,62,30.45,10.0,North,10.4,-,N/A,,Clear,10,2012-11-17 07:52:00
3:52 AM,43.0,30.9,62,30.46,10.0,North,10.4,-,N/A,,Clear,10,2012-11-17 08:52:00
4:52 AM,42.1,28.0,58,30.48,10.0,North,13.8,-,N/A,,Clear,10,2012-11-17 09:52:00
5:52 AM,42.1,27.0,55,30.49,10.0,North,11.5,-,N/A,,Clear,10,2012-11-17 10:52:00
6:08 AM,42.8,28.4,57,30.49,10.0,North,13.8,-,N/A,,Clear,10,2012-11-17 11:08:00
6:52 AM,42.1,28.0,58,30.51,10.0,North,12.7,-,N/A,,Clear,10,2012-11-17 11:52:00
7:52 AM,43.0,28.9,58,30.53,10.0,North,12.7,-,N/A,,Clear,10,2012-11-17 12:52:00
8:52 AM,45.0,30.0,56,30.55,10.0,North,15.0,-,N/A,,Clear,360,2012-11-17 13:52:00
9:52 AM,46.0,30.9,56,30.57,10.0,North,15.0,-,N/A,,Partly Cloudy,10,2012-11-17 14:52:00
10:52 AM,48.0,30.9,52,30.57,10.0,North,13.8,-,N/A,,Partly Cloudy,350,2012-11-17 15:52:00
11:52 AM,48.9,33.1,54,30.56,10.0,North,10.4,-,N/A,,Partly Cloudy,350,2012-11-17 16:52:00
12:52 PM,51.1,35.1,54,30.55,10.0,North,10.4,-,N/A,,Scattered Clouds,360,2012-11-17 17:52:00
1:52 PM,51.1,36.0,56,30.54,10.0,North,9.2,-,N/A,,Scattered Clouds,350,2012-11-17 18:52:00
2:52 PM,52.0,37.0,57,30.53,10.0,North,9.2,-,N/A,,Scattered Clouds,360,2012-11-17 19:52:00
3:52 PM,51.1,37.9,61,30.55,10.0,North,11.5,-,N/A,,Mostly Cloudy,350,2012-11-17 20:52:00
4:52 PM,50.0,37.9,63,30.56,10.0,NE,10.4,-,N/A,,Mostly Cloudy,50,2012-11-17 21:52:00
5:52 PM,46.9,39.0,74,30.56,10.0,NNE,6.9,-,N/A,,Mostly Cloudy,20,2012-11-17 22:52:00
6:52 PM,48.0,39.9,74,30.56,10.0,NNE,10.4,-,N/A,,Clear,20,2012-11-17 23:52:00
7:52 PM,48.0,39.9,74,30.56,10.0,North,9.2,-,N/A,,Clear,10,2012-11-18 00:52:00
8:52 PM,48.0,39.9,74,30.57,10.0,NE,13.8,-,N/A,,Clear,40,2012-11-18 01:52:00
9:52 PM,46.9,39.9,77,30.57,10.0,NNE,12.7,-,N/A,,Clear,30,2012-11-18 02:52:00
10:52 PM,46.9,39.9,77,30.56,10.0,NNE,12.7,-,N/A,,Clear,30,2012-11-18 03:52:00
11:52 PM,46.9,39.9,77,30.56,10.0,NNE,13.8,-,N/A,,Clear,20,2012-11-18 04:52:00